STARLINK-1030 (44735 NORAD) Tracking and Keplerian Element Data

This shows tracking and keplerian element data for the satellite.

Feedback or suggestion? Click here.




ElementValue
Catalog44735
NameSTARLINK-1030
Epoch Orbit2207
Epoch Day93.91667824
Epoch Year2020
RAAN213.6438
Inclination52.9975
Eccentricity0.0001221
Argument of Perigee114.4496
Mean Anonmoly231.9675
Mean Motion15.05574472
Decay Rate-0.00020557
L11 44735U 19074Y 20093.91667824 -.00020557 00000-0 -13960-2 0 9993
L22 44735 52.9975 213.6438 0001221 114.4496 231.9675 15.05574472 22078

Live tracking and technical data element details for STARLINK-1030 (NORAD 44735). STARLINK-1030 can be tracked NOW for your location showing map with azimuth and elevation plus other details from your city location.

Track the satellite on the map from your city or location and see movement details for azimuth, elevation, latitude, longitude, range, height, and movement on the map or in text.







IsCatalogInMostPopularTable: catalog: 44735, numindb: 35
Update: records affected: 1



GetName: 44735 STARLINK-1030

Hit Count: updated at: Sun, 05 Apr 2020 20:17:06 GMT